Regional Weather Roundup
Issued by NWS

Home | Current Version | Previous Version | Graphics & Text | Print | Product List | Glossary On
Versions: 1 2 3 4 5 6 7 8 9 10 11 12 13 14 15 16 17 18 19 20 21 22 23 24 25 26 27 28 29 30 31 32 33 34 35 36 37 38 39 40 41 42 43 44 45 46 47 48 49 50
000
ASUS45 KSLC 010410
RWRUT

UTAH REGIONAL WEATHER ROUNDUP
NATIONAL WEATHER SERVICE SALT LAKE CITY UT
900 PM MST SAT FEB 28 2015

UTZ001>011-023>025-010500-

NORTHERN UTAH

CITY           SKY/WX    TMP DP  RH WIND       PRES   REMARKS
BRIGHAM CITY   CLOUDY    40  21  47 CALM      29.87R
HILL AFB       CLOUDY    36  25  64 S9        29.86R WCI  29
LOGAN          MOCLDY    40  15  36 E8        29.85R WCI  34
OGDEN          CLOUDY    37  25  61 SE10      29.85R WCI  30
PROVO AIRPORT  CLOUDY    34  30  86 NW5       29.87R WCI  30
SALT LAKE CITY CLOUDY    35  32  88 W7        29.87R WCI  29
VERNAL         FLURRIES  32  30  92 N5        29.86R WCI  27
WENDOVER       MOCLDY    37  28  70 W5        29.88R WCI  34
HEBER CITY     LGT SNOW  30  28  93 CALM      29.85R
WEST JORDAN    CLOUDY    34  32  93 NW5       29.87R WCI  30

$$

UTZ012>022-026-027-010500-

SOUTHERN/CENTRAL UTAH

CITY           SKY/WX    TMP DP  RH WIND       PRES   REMARKS
BLANDING       CLOUDY    32  32 100 CALM      29.97R
BRYCE CANYON   LGT SNOW  23  22  96 CALM      29.85S FOG
CEDAR CITY     FOG       25  23  92 CALM      29.83R VSB 1/4
DELTA          CLOUDY    32  32 100 SE5       29.86R WCI  28
HANKSVILLE     PTCLDY    32  32 100 N6        29.87R WCI  26
MILFORD        MOCLDY    35  30  82 S8        29.84R WCI  29
MOAB/CYNLANDS  MOCLDY    30  29  96 W3        29.84R
PRICE          CLOUDY    32  29  88 E5        29.83R WCI  27
ST GEORGE      CLOUDY    46  36  66 SE7       29.85R
KANAB          CLOUDY    36  34  93 S12       29.92R WCI  27

$$

REGIONAL REPORTS     COLORADO/ARIZONA

CITY           SKY/WX    TMP DP  RH WIND       PRES   REMARKS
CRAIG, CO      LGT SNOW  29  27  92 W6        29.84R FOG     WCI  23
GRAND JUNCTION PTCLDY    33  30  88 SE7       29.85R WCI  27
RIFLE          CLOUDY    34  25  69 CALM      29.84R
MONTROSE       MOCLDY    34  31  88 S13       29.90R WCI  25
CORTEZ         FOG       27  26  96 CALM      29.92R VSB 1/4
PAGE, AZ       PTCLDY    41  35  79 CALM      29.88R
GRAND CANYON   CLOUDY    35  28  75 SW6       29.90R WCI  30
KINGMAN        PTCLDY    48  29  47 S10       29.85R
FLAGSTAFF      MOCLDY    36  31  82 SW15      29.91R WCI  27

$$

REGIONAL REPORTS    NEVADA/IDAHO/WYOMING

CITY           SKY/WX    TMP DP  RH WIND       PRES   REMARKS
LAS VEGAS, NV  PTCLDY    57  24  28 SW10      29.76R
ELY            CLOUDY    30  29  96 N8        29.82R WCI  22
ELKO           CLEAR     33  29  85 E5        29.85R WCI  29
POCATELLO, ID  CLEAR     28  11  48 NE12      29.95R WCI  18
BURLEY         PTCLDY    31  14  49 E5        29.91R WCI  26
EVANSTON, WY   CLOUDY    24  22  91 E8        29.84R WCI  15
ROCK SPRINGS   LGT SNOW  13   9  84 NE17      29.91R FOG     WCI  -4

$$


USA.gov is the U.S. government's official web portal to all federal, state and local government web resources and services.